OK4PZ-5 Weather Reports


time (UTC)temp
F
wind
direction
speed
knots
gust
knots
rain 1hr
in
rain 24hr
in
rain mn
in
humidity
%
barometer
mb
20260905223002 58 241 0.0 0.9 0.00 0.00 0.00 72 1026.0
20260905221502 57 248 0.0 0.9 0.00 0.00 0.00 73 1026.0
20260905220002 56 246 0.0 0.9 0.00 0.00 0.19 75 1026.0
20260905214502 57 246 0.0 0.0 0.00 0.00 0.19 74 1026.0
20260905213003 59 246 0.0 0.0 0.00 0.00 0.19 68 1026.0
20260905211502 61 242 0.9 1.7 0.00 0.00 0.19 65 1025.0
20260905210002 61 249 1.7 2.6 0.00 0.00 0.19 67 1025.0
20260905204502 61 281 0.0 1.7 0.00 0.00 0.19 69 1025.0
20260905203003 62 285 0.0 1.7 0.00 0.00 0.19 67 1025.0
20260905201502 63 292 0.9 2.6 0.00 0.00 0.19 66 1025.0
20260905200002 64 306 0.9 7.0 0.00 0.00 0.19 63 1025.0
20260905194502 64 277 1.7 3.5 0.00 0.00 0.19 62 1025.0
20260905193002 65 295 0.9 3.5 0.00 0.00 0.19 60 1024.0
20260905191503 66 300 1.7 6.1 0.00 0.00 0.19 59 1024.0
20260905190002 66 231 6.1 7.8 0.00 0.00 0.19 57 1024.0
20260905184502 67 298 2.6 6.1 0.00 0.00 0.19 57 1024.0
20260905183003 67 284 1.7 5.2 0.00 0.00 0.19 59 1024.0
20260905181502 67 263 1.7 5.2 0.00 0.00 0.19 60 1023.0
20260905180002 67 279 1.7 2.6 0.00 0.00 0.19 62 1023.0
20260905174502 68 264 1.7 3.5 0.00 0.00 0.19 61 1023.0
20260905173003 68 238 1.7 3.5 0.00 0.00 0.19 60 1023.0
20260905171502 69 260 1.7 2.6 0.00 0.00 0.19 59 1023.0
20260905170002 69 293 1.7 3.5 0.00 0.00 0.19 58 1022.0
20260905164502 69 268 1.7 7.0 0.00 0.00 0.19 58 1022.0
20260905163003 70 303 2.6 7.0 0.00 0.00 0.19 56 1022.0
20260905161502 70 252 4.3 12.2 0.00 0.00 0.19 54 1022.0
20260905160002 71 301 6.1 7.8 0.00 0.00 0.19 52 1022.0
20260905154502 71 280 3.5 12.2 0.00 0.00 0.19 52 1022.0
20260905153002 72 306 6.1 14.8 0.00 0.00 0.19 51 1022.0
20260905151502 72 229 4.3 12.2 0.00 0.00 0.19 49 1022.0
20260905150003 71 244 3.5 7.8 0.00 0.00 0.19 52 1022.0
20260905144502 72 306 2.6 7.0 0.00 0.00 0.19 50 1022.0
20260905143002 71 263 1.7 8.7 0.00 0.00 0.19 51 1022.0
20260905141502 72 232 6.1 8.7 0.00 0.00 0.19 50 1022.0
20260905140002 69 231 1.7 5.2 0.00 0.00 0.19 53 1022.0
20260905134502 69 269 2.6 7.8 0.00 0.00 0.19 56 1022.0
20260905133003 70 24 4.3 7.0 0.00 0.00 0.19 53 1022.0
20260905131503 69 258 1.7 6.1 0.00 0.00 0.19 54 1022.0
20260905130002 71 224 6.1 13.9 0.00 0.00 0.19 53 1023.0
20260905124502 71 272 6.1 13.0 0.00 0.00 0.19 55 1022.0
20260905123002 70 258 9.6 11.3 0.00 0.00 0.19 56 1023.0
20260905121502 71 287 1.7 6.1 0.00 0.00 0.19 57 1023.0
20260905120002 69 8 5.2 13.9 0.00 0.00 0.19 58 1023.0
20260905114502 68 276 2.6 7.0 0.00 0.00 0.19 61 1023.0
20260905113002 67 280 3.5 6.1 0.00 0.00 0.19 63 1023.0
20260905111502 68 47 3.5 5.2 0.00 0.00 0.19 62 1023.0
20260905110002 68 276 1.7 5.2 0.00 0.00 0.19 61 1023.0
20260905104502 67 262 7.8 13.0 0.00 0.00 0.19 59 1023.0
20260905103002 67 252 6.1 8.7 0.00 0.00 0.19 61 1023.0
20260905101502 67 296 3.5 8.7 0.00 0.00 0.19 63 1023.0
20260905100002 66 258 4.3 7.0 0.00 0.00 0.19 66 1023.0
20260905094502 65 288 0.9 6.1 0.00 0.00 0.19 70 1023.0
20260905093002 64 250 5.2 8.7 0.00 0.00 0.19 73 1023.0
20260905091502 64 262 1.7 5.2 0.00 0.00 0.19 76 1023.0
20260905090002 63 288 3.5 6.1 0.00 0.00 0.19 79 1023.0
20260905084502 61 285 3.5 7.8 0.00 0.00 0.19 82 1023.0
20260905083002 60 224 1.7 6.1 0.00 0.00 0.19 86 1023.0
20260905081503 59 275 3.5 6.1 0.00 0.00 0.19 90 1023.0
20260905080002 58 244 3.5 5.2 0.00 0.00 0.19 91 1023.0
20260905074502 58 254 2.6 5.2 0.00 0.00 0.19 92 1022.0
20260905073002 57 242 1.7 2.6 0.00 0.00 0.19 93 1022.0
20260905071502 58 272 0.9 3.5 0.00 0.00 0.19 94 1022.0
20260905070003 57 288 0.9 5.2 0.00 0.00 0.19 94 1022.0
20260905064502 57 251 0.9 2.6 0.00 0.00 0.19 95 1022.0
20260905063002 57 268 2.6 3.5 0.07 0.00 0.19 96 1022.0
20260905061502 57 216 0.9 2.6 0.05 0.00 0.18 96 1022.0
20260905060002 57 262 0.0 0.9 0.05 0.00 0.16 95 1022.0
20260905054502 56 229 0.0 0.9 0.14 0.00 0.13 95 1022.0
20260905053002 56 265 1.7 2.6 0.19 0.00 0.10 93 1022.0
20260905051502 57 275 0.0 0.9 0.07 0.00 0.06 92 1022.0
20260905050002 57 259 0.0 2.6 0.07 0.00 0.04 90 1022.0
20260905044503 58 275 0.9 2.6 0.12 0.00 0.02 87 1021.0
20260905043002 59 246 0.0 0.9 0.00 0.00 0.00 86 1021.0
20260905041502 59 240 0.9 1.7 0.00 0.00 0.00 87 1021.0
20260905040002 60 257 0.9 0.9 0.00 0.00 0.00 85 1020.0
20260905034502 60 254 0.0 0.0 0.00 0.00 0.00 81 1020.0
20260905033001 61 253 1.7 2.6 0.00 0.00 0.00 78 1020.0
20260905031502 62 262 0.9 1.7 0.00 0.00 0.00 73 1020.0
20260905030002 63 72 1.7 3.5 0.00 0.00 0.00 69 1019.0
20260905024502 64 264 1.7 2.6 0.00 0.00 0.00 67 1019.0
20260905023002 64 60 0.0 3.5 0.00 0.00 0.00 67 1019.0
20260905021502 64 331 1.7 2.6 0.00 0.00 0.00 69 1019.0
20260905020003 64 23 0.9 0.9 0.00 0.00 0.00 69 1018.0
20260905014503 63 350 1.7 2.6 0.00 0.00 0.00 71 1018.0
20260905013002 64 70 5.2 7.8 0.00 0.00 0.00 72 1018.0
20260905011502 65 50 3.5 6.1 0.00 0.00 0.00 70 1018.0
20260905010002 65 34 5.2 11.3 0.00 0.00 0.00 72 1018.0
20260905004502 68 32 8.7 13.0 0.00 0.00 0.00 71 1018.0
20260905003002 71 275 0.0 1.7 0.00 0.00 0.00 64 1017.0
20260905001502 71 246 0.9 1.7 0.00 0.00 0.00 64 1016.0
20260905000002 70 254 1.7 1.7 0.00 0.00 0.00 64 1016.0
20260904234502 70 251 0.9 0.9 0.00 0.00 0.00 65 1016.0
20260904233002 70 273 1.7 1.7 0.00 0.00 0.00 65 1016.0
20260904231502 70 236 0.0 0.9 0.00 0.00 0.00 64 1016.0
20260904230002 70 245 0.9 1.7 0.00 0.00 0.00 64 1016.0
20260904224502 65 246 0.9 2.6 0.00 0.00 0.00 74 1016.0